Regional Weather Roundup
Issued by NWS Newport/Morehead, NC

Current Version | Previous Version | Graphics & Text | Print | Product List | Glossary On
Versions: 1 2 3 4 5 6 7 8 9 10 11 12 13 14 15 16 17 18 19 20 21 22 23 24 25 26 27 28 29 30 31 32 33 34 35 36 37 38 39 40 41 42 43 44 45 46 47 48 49 50
000 ASUS42 KMHX 190510 RWRMHX WEATHER ROUNDUP FOR EASTERN NORTH CAROLINA NATIONAL WEATHER SERVICE NEWPORT/MOREHEAD CITY NC 100 AM EDT FRI SEP 19 2014 NOTE: "FAIR" INDICATES FEW OR NO CLOUDS BELOW 12,000 FEET WITH NO SIGNIFICANT WEATHER AND/OR OBSTRUCTIONS TO VISIBILITY NCZ015>017-031-032-045>047-102-103-190600- NORTH COAST CITY SKY/WX TMP DP RH WIND PRES REMARKS EDENTON CLEAR 60 59 96 CALM 30.08S ELIZABETH CITY CLEAR 64 58 80 E3 30.08S KITTY HAWK CLEAR 70 57 62 E5 30.07S MANTEO CLEAR 68 58 68 NE7 30.08S $$ NCZ045>047-081-094-103-104-190600- CENTRAL COAST CITY SKY/WX TMP DP RH WIND PRES REMARKS FRISCO CLEAR 67 60 78 NE5 30.06S SWANQUARTER N/A 64 N/A N/A NE3 30.03S $$ NCZ095-097-098-100-101-190600- SOUTHERN COAST CITY SKY/WX TMP DP RH WIND PRES REMARKS BEAUFORT CLEAR 66 60 81 NE6 30.06R CEDAR ISLAND N/A 73 N/A N/A N6G14 30.09S JACKSONVILLE CLEAR 68 59 73 E12 30.06R NEWPORT NOT AVBL PINEY ISLAND CLEAR 75 58 55 E10 30.06R WILMINGTON PTCLDY 65 62 90 N5 30.04S $$ NCZ011>013-027>030-043-044-078>080-089-090>093-098-190600- COASTAL PLAIN CITY SKY/WX TMP DP RH WIND PRES REMARKS AHOSKIE CLEAR 58 56 95 CALM 30.09S CLINTON PTCLDY 65 62 87 CALM 30.07R ELIZABETHTOWN MOCLDY 67 62 84 CALM 30.05S GOLDSBORO CLEAR 64 63 98 CALM 30.06S GREENVILLE CLEAR 63 59 88 CALM 30.10R HAVELOCK CLEAR 64 59 83 CALM 30.08R KENANSVILLE CLEAR 61 61 100 CALM 30.08S KINSTON CLEAR 62 60 94 CALM 30.08S NEW BERN CLEAR 67 59 75 E5 30.08S RICHLANDS CLEAR 63 57 82 NE6 30.07S ROANOKE RAPIDS NOT AVBL ROCKY MOUNT CLEAR 60 57 89 CALM 30.09R WASHINGTON CLEAR 60 57 91 CALM 30.08S WHITEVILLE PTCLDY 67 65 92 NE3 30.03S $$ AMZ130-135-150-152-154-156-158-170-250-252-270-ANZ085-086-088-633-658-670-190600- MARINE OBSERVATIONS STATION/POSITION TIME TEMP WIND PRES WAVE SWELL AIR SEA DIR/SP/G HT/PER HT/PER (UTC) (F) (DEG/KT/KT) (MB) (FT/S) (FT/S) CHESAPEAKE LIGHT 0400 71 130/ 7/ 8 1019.2 BUOY 44014 0500 72 72 60/ 8/ 12 1018.3 4/11 3/11 DUCK 0500 72 75 80/ 8/ 10 1017.9 2E DUCK 0500 N/A 3/12 2/12 OREGON INLET 0500 71 74 40/ 9/ 12 1018.1 BUOY 44095 0500 76 N/A 4/13 2/13 20E OREGON INLET NOT AVBL HATTERAS CG 0500 72 77 50/ 6/ 11 1018.2 DIAMOND BUOY 0500 73 10/ 14/ 16 1017.3 4/11 3/11 CAPE LOOKOUT 0400 76 60/ 16/ 18 1017.1 BEAUFORT LAB 0500 67 78 20/ 5/ 6 1017.2 30 SE NEW RIVER 0500 78 83 70/ 14/ 17 1017.1 4/ 5 2/11 5 SE WRIGHTSVILL 0400 74 81 80/ 14/ 16 N/A BUOY 41002 0415 79 82 80/ 12/ 14 1015.9 4/10 3/10 BUOY 41004 0500 80 83 90/ 8/ 10 1014.7 3/11 3/11 $$

USA.gov is the U.S. government's official web portal to all federal, state and local government web resources and services.